Tracking 25964 objects as of 11-Aug-2022
HD Live streaming from Space Station
objects crossing your sky now

USA 65

Track USA 65 now!
USA 65 is classified as:


NORAD ID: 20929
Int'l Code: 1990-095A
Perigee: 36,286.9 km
Apogee: 36,369.1 km
Inclination: 14.9 °
Period: 1,463.5 minutes
Semi major axis: 42698 km
RCS: Unknown
Launch date: November 13, 1990
Source: United States (US)
Launch site: AIR FORCE EASTERN TEST RANGE (AFETR)
aabbcc
Your satellite tracking list
Your tracking list is empty




NASA's NSSDC Master Catalog

Two Line Element Set (TLE):
1 20929U 90095A   22222.88300752 -.00000014  00000-0  00000+0 0  9993
2 20929  14.8719 354.1726 0009623  77.2913 282.8639  0.98395765 11621
Source of the keplerian elements: McCants